Miscellaneous Local Product
Issued by NWS Hastings, NE

Home | Current Version | Previous Version | Text Only | Print | Product List | Glossary On
Versions: 1 2 3 4 5 6 7 8 9 10 11 12 13 14 15 16 17 18 19 20 21 22 23 24 25 26 27 28 29 30 31 32 33 34 35 36 37 38 39 40 41 42 43 44 45 46 47 48 49 50
000
AXUS43 KGID 300802
MISGRI

GID CWA HOURLY WEATHER ROUNDUP
NATIONAL WEATHER SERVICE HASTINGS NE
300 AM CDT TUE MAY 30 2017

NOTE: "FAIR" INDICATES FEW OR NO CLOUDS BELOW 12,000 FEET WITH NO
SIGNIFICANT WEATHER AND/OR OBSTRUCTIONS TO VISIBILITY.

...SOUTH CENTRAL NEBRASKA...

CITY           SKY/WX    TMP DP  RH WIND       PRES   REMARKS
GRAND ISLAND   CLEAR     50  43  77 W3        30.09S
HASTINGS       CLEAR     53  42  66 SW3       30.10S
KEARNEY        CLEAR     52  39  62 CALM      30.11S
ORD            CLEAR     44  38  79 NW3       30.08S
YORK           CLEAR     50  41  71 SW7       30.08S
AURORA         CLEAR     50  40  69 SW3       30.08S
LEXINGTON      CLEAR     46  40  79 NW5       30.11F
HOLDREGE       CLEAR     50  42  73 CALM      30.10S
HEBRON         MOCLDY    51  46  84 CALM      30.08S

...NEBRASKA PANHANDLE...

CITY           SKY/WX    TMP DP  RH WIND       PRES   REMARKS
CHADRON        CLEAR     40  36  86 SW7       30.14S
ALLIANCE       CLEAR     35  32  88 NW6       30.16S WCI  30
SCOTTSBLUFF    CLEAR     41  36  82 NW7       30.17S
SIDNEY         CLEAR     41  38  89 W8        30.18F

...WESTERN AND NORTH CENTRAL NEBRASKA...

CITY           SKY/WX    TMP DP  RH WIND       PRES   REMARKS
VALENTINE      PTCLDY    41  35  79 SW7       30.10S
AINSWORTH      CLEAR     46  39  78 W3        30.09F
ONEILL         CLEAR     48  39  72 W5        30.07S
BROKEN BOW     CLEAR     44  37  76 CALM      30.10S
IMPERIAL       MOCLDY    56  46  69 W9        30.14F
NORTH PLATTE   CLEAR     42  39  89 SW3       30.13S
MCCOOK         CLEAR     51  46  83 SW8       30.10F

...EASTERN NEBRASKA...

CITY           SKY/WX    TMP DP  RH WIND       PRES   REMARKS
NORFOLK        CLEAR     44  39  82 CALM      30.04S
SO SIOUX CITY  MOCLDY    50  43  77 CALM      30.02S
TEKAMAH        CLEAR     51  40  65 SW8       30.03S
ALBION         PTCLDY    44  39  85 N3        30.08R
OMAHA EPPLEY   PTCLDY    53  44  71 CALM      30.04S
OFFUTT AFB     CLEAR     47  44  92 CALM      30.03S
MILLARD        CLEAR     51  49  90 CALM      30.04S
LINCOLN        CLEAR     48  43  82 CALM      30.06F
NEBRASKA CITY  CLEAR     54  39  56 SW7       30.06R
BEATRICE       CLEAR     50  46  85 CALM      30.06S
FALLS CITY     NOT AVBL

...NORTHERN KANSAS...

CITY           SKY/WX    TMP DP  RH WIND       PRES   REMARKS
GOODLAND       CLEAR     51  47  86 SW9       30.16F
HILL CITY      CLEAR     58  52  80 W12       30.12R
NORTON         SUNNY     48  39  71 N5        30.09F
PHILLIPSBURG   CLEAR     48  48 100 NW3       30.10S
SMITH CENTER   PTCLDY    50  45  81 CALM      30.10S
HAYS           CLOUDY    57  51  80 W8        30.12S
RUSSELL        CLOUDY    57  50  77 W9        30.10R
CONCORDIA      CLEAR     56  43  61 S5        30.08S
SALINA         CLOUDY    60  51  72 CALM      30.08F
TOPEKA         PTCLDY    57  53  86 CALM      30.07S



USA.gov is the U.S. government's official web portal to all federal, state and local government web resources and services.